Regional Weather Roundup
Issued by NWS Little Rock, AR

Home | Current Version | Previous Version | Text Only | Print | Product List | Glossary Off
Versions: 1 2 3 4 5 6 7 8 9 10 11 12 13 14 15 16 17 18 19 20 21 22 23 24 25 26 27 28 29 30 31

000
ASUS44 KLZK 180005
RWRLZK

WEATHER ROUNDUP FOR ARKANSAS
NATIONAL WEATHER SERVICE LITTLE ROCK AR
700 PM CDT THU AUG 17 2017

NOTE: "FAIR" INDICATES FEW OR NO CLOUDS BELOW 12,000 FEET WITH NO
SIGNIFICANT WEATHER AND/OR OBSTRUCTIONS TO VISIBILITY.

ARZ001-003-010-029-180100-
NORTHWEST ARKANSAS

CITY           SKY/WX    TMP DP  RH WIND       PRES   REMARKS
FAYETTEVILLE   MOSUNNY   81  71  71 W7        29.98S HX  85
6HR MIN TEMP:  77; 6HR MAX TEMP:  83;

FORT SMITH     MOSUNNY   87  73  62 NW7       29.94S HX  94
6HR MIN TEMP:  81; 6HR MAX TEMP:  88;

HARRISON       SUNNY     81  68  64 W7        29.97S
6HR MIN TEMP:  78; 6HR MAX TEMP:  84;

BENTONVILLE    SUNNY     82  68  61 NW8       29.98F HX  85
6HR MIN TEMP:  79; 6HR MAX TEMP:  84;

ROGERS         SUNNY     82  70  66 NW5       29.99S HX  86
6HR MIN TEMP:  78; 6HR MAX TEMP:  84;

SILOAM SPGS    PTSUNNY   82  70  65 NW6       29.97S HX  86
6HR MIN TEMP:  79; 6HR MAX TEMP:  86;

HIGHFILL       MOSUNNY   81  71  71 W3        29.98S HX  85
6HR MIN TEMP:  78; 6HR MAX TEMP:  85;

$$

ARZ004-005-016-180100-
NORTH CENTRAL ARKANSAS

CITY           SKY/WX    TMP DP  RH WIND       PRES   REMARKS
BATESVILLE     CLOUDY    82  72  69 CALM      29.93S HX  87
6HR MIN TEMP:  81; 6HR MAX TEMP:  86;

FLIPPIN        CLOUDY    84  66  54 W6        29.92S HX  86
6HR MIN TEMP:  79; 6HR MAX TEMP:  86;

MTN HOME       CLOUDY    81  70  69 W3        29.93F
6HR MIN TEMP:  76; 6HR MAX TEMP:  85;

$$

ARZ040-041-180100-
WEST CENTRAL ARKANSAS

CITY           SKY/WX    TMP DP  RH WIND       PRES   REMARKS
MENA           MOSUNNY   82  79  89 W5        30.00R HX  93
MOUNT IDA      PTSUNNY   84  70  62 CALM      29.96R HX  88
6HR MIN TEMP:  82; 6HR MAX TEMP:  87;

$$

ARZ009-017-025-026-028-180100-
NORTHEAST ARKANSAS

CITY           SKY/WX    TMP DP  RH WIND       PRES   REMARKS
CORNING        FAIR      82  79  89 W6        29.90S HX  93
JONESBORO      PTCLDY    82  75  79 W6        29.91S HX  89
6HR MIN TEMP:  79; 6HR MAX TEMP:  85;

NEWPORT        MOCLDY    83  74  74 W6        29.92S HX  89
6HR MIN TEMP:  81; 6HR MAX TEMP:  87;

WALNUT RIDGE   PTCLDY    82  72  69 W6        29.91R HX  87
6HR MIN TEMP:  79; 6HR MAX TEMP:  86;

BLYTHEVILLE    MOCLDY    83  75  77 W5        29.90S HX  90
6HR MIN TEMP:  83; 6HR MAX TEMP:  87;

$$

ARZ022-023-033-042-044-180100-
CENTRAL ARKANSAS

CITY           SKY/WX    TMP DP  RH WIND       PRES   REMARKS
LITTLE ROCK    PTSUNNY   84  73  69 NW13      29.95R HX  90
6HR MIN TEMP:  81; 6HR MAX TEMP:  89;

N LITTLE ROCK    N/A     82  73  75 CALM      29.95R HX  87
6HR MIN TEMP:  79; 6HR MAX TEMP:  86;

JACKSONVILLE   CLEAR     84  75  74 W5        29.94R HX  91
6HR MIN TEMP:  81; 6HR MAX TEMP:  89;

CONWAY           N/A     84  75  74 W6        29.93R HX  92
SEARCY           N/A    N/A N/A N/A MISG        N/A
HOT SPRINGS    PTSUNNY   85  72  65 W5        29.97R HX  91
6HR MIN TEMP:  81; 6HR MAX TEMP:  88;

RUSSELLVILLE   MOSUNNY   83  72  69 W6        29.94S HX  88
6HR MIN TEMP:  82; 6HR MAX TEMP:  86;

CLINTON        FAIR      82  75  78 CALM      29.94S HX  89
$$

ARZ036-180100-
EAST ARKANSAS

CITY           SKY/WX    TMP DP  RH WIND       PRES   REMARKS
WEST MEMPHIS   CLOUDY    83  76  79 W5        29.91S HX  91
6HR MIN TEMP:  78; 6HR MAX TEMP:  89;

$$

ARZ050-053-066-070-073-180100-
SOUTHWEST ARKANSAS

CITY           SKY/WX    TMP DP  RH WIND       PRES   REMARKS
ARKADELPHIA    FAIR      82  75  79 SW6       29.97R HX  89
6HR MIN TEMP:  80; 6HR MAX TEMP:  85;

CAMDEN         MOSUNNY   84  72  65 W3        29.97R HX  89
TEXARKANA      CLOUDY    80  75  84 CALM      29.98S HX  85
6HR MIN TEMP:  75; 6HR MAX TEMP:  84;

EL DORADO      MOSUNNY   83  71  67 SW5       29.99R HX  87
6HR MIN TEMP:  83; 6HR MAX TEMP:  86;

DE QUEEN       PTSUNNY   82  76  81 SW7       29.96R HX  89
6HR MIN TEMP:  77; 6HR MAX TEMP:  84;

$$

ARZ056-057-069-180100-
SOUTHEAST ARKANSAS

CITY           SKY/WX    TMP DP  RH WIND       PRES   REMARKS
PINE BLUFF     CLEAR     83  73  72 SW7       29.96R HX  89
6HR MIN TEMP:  83; 6HR MAX TEMP:  86;

MONTICELLO     CLOUDY    83  73  72 W5        29.96S HX  89
6HR MIN TEMP:  83; 6HR MAX TEMP:  86;


$$






USA.gov is the U.S. government's official web portal to all federal, state and local government web resources and services.